[[{"header":{"parameterUnit":"m.s-1","parameterCategory":1,"la1":30.2991,"la2":30.254,"lo1":-89.0895,"lo2":-89.0444,"dy":0.0017,"dx":0.0017,"nx":28,"ny":28,"refTime":"2025-04-15T21:00:00:Z","depth":0,"parameterNumber":2,"parameterNumberName":"U-component_of_WINDS"},"data":[0,0,0,0,0,0,0,0,0,0,0,0,0,0,0,0,0,0,0,0,0,0,0,0,0,0,0,0,0,0,0,0,0,0,0,0,0,0,0,0,0,0,0,0,0,0,0,0,0,0,0,0,0,0,0,0,0,0,-4.3733,-4.3733,0,-4.373,-4.373,-4.373,-4.3643,-4.3641,-4.3639,-4.3636,-4.3635,-4.3637,-4.3639,0,0,0,0,0,0,0,0,0,0,0,0,0,-4.3664,-4.3666,-4.3733,-4.3733,-4.3733,-4.373,-4.373,-4.373,-4.3643,-4.3641,-4.3638,-4.3635,-4.3634,-4.3637,-4.3639,0,0,0,0,0,0,0,0,0,0,0,0,0,-4.3681,-4.3667,-4.3733,-4.3689,-4.3685,-4.373,-4.373,-4.373,-4.3644,-4.3641,-4.3637,-4.3634,-4.3634,-4.3637,-4.364,-4.3727,0,0,-4.3649,-4.3651,0,0,0,0,0,0,0,0,-4.368,-4.3684,-4.3696,-4.3692,-4.3688,-4.3684,-4.3706,-4.3729,-4.3645,-4.366,-4.3636,-4.3632,-4.3654,-4.3655,-4.3662,-4.3727,-4.3727,-4.365,-4.3651,-4.3653,-4.3654,0,0,0,0,0,0,0,-4.3679,-4.3684,-4.3732,-4.3696,-4.3691,-4.367,-4.3669,-4.371,-4.3676,-4.3658,-4.3652,-4.3653,-4.3651,-4.366,-4.3662,-4.3727,-4.3649,-4.3652,-4.3654,-4.3655,-4.3864,-4.3868,0,0,0,0,0,0,-4.3684,-4.3683,-4.3732,-4.3732,-4.3676,-4.3674,-4.3673,-4.3688,-4.3675,-4.367,-4.3656,-4.3649,-4.3656,-4.3658,-4.3661,-4.3764,-4.3653,-4.3656,-4.3657,-4.3861,-4.3865,-4.3869,0,0,0,0,0,0,-4.3683,-4.3689,-4.3732,-4.3706,-4.371,-4.3679,-4.3697,-4.369,-4.3698,-4.3673,-4.3667,-4.367,-4.3653,-4.3657,-4.3712,-4.3763,-4.3657,-4.366,-4.3857,-4.3862,-4.3867,-4.3969,0,0,0,0,0,0,-4.3681,-4.3689,-4.3722,-4.3707,-4.3711,-4.3782,-4.37,-4.3693,-4.3704,-4.3695,-4.3685,-4.3681,-4.3651,-4.3707,-4.3715,-4.3765,-4.3662,-4.3852,-4.3859,-4.3866,-4.3961,-4.3978,-4.3992,0,0,0,0,0,-4.3679,-4.3751,-4.3724,-4.373,-4.3751,-4.3785,-4.3788,-4.3752,-4.3708,-4.3741,-4.3725,-4.3681,-4.3756,-4.3714,-4.3721,-4.3773,-4.3848,-4.3857,-4.3865,-4.3954,-4.3974,-4.3991,0,0,0,0,0,0,-4.3772,-4.3748,-4.3718,-4.3787,-4.3789,-4.3771,-4.3811,-4.3774,-4.3789,-4.378,-4.3735,-4.3734,-4.3796,-4.3789,-4.3743,-4.3858,-4.3794,-4.3805,-4.386,-4.3878,-4.3893,-4.3894,-4.3665,0,0,0,0,0,-4.3801,-4.383,-4.3807,-4.387,-4.3872,-4.3842,-4.3855,-4.3827,-4.3828,-4.3829,-4.3816,-4.3819,-4.3843,-4.386,-4.3881,-4.3959,-4.3957,-4.3999,-4.4014,-4.4027,-4.4037,-4.4079,-4.4098,-4.3897,-4.3896,-4.3896,0,0,-4.386,-4.385,-4.3871,-4.3888,-4.3887,-4.3919,-4.3843,-4.388,-4.3904,-4.3834,-4.3885,-4.3877,-4.3877,-4.3945,-4.3974,-4.3941,-4.4092,-4.4037,-4.4047,-4.405,-4.409,-4.4109,-4.4126,-4.3902,-4.3901,-4.39,0,0,-4.3984,-4.3979,-4.4032,-4.4032,-4.403,-4.401,-4.4022,-4.401,-4.4002,-4.4052,-4.4001,-4.4029,-4.4071,-4.4074,-4.408,-4.4207,-4.4168,-4.4215,-4.4295,-4.4337,-4.4353,-4.4367,-4.4414,-4.4431,-4.4224,-4.4225,-4.4225,0,-4.4058,-4.4104,-4.4064,-4.4104,-4.4114,-4.4052,-4.4106,-4.4108,-4.4114,-4.4122,-4.4085,-4.4138,-4.4133,-4.4201,-4.4232,-4.4239,-4.4254,-4.4216,-4.4354,-4.4367,-4.438,-4.4424,-4.4442,-4.4231,-4.423,-4.4229,-4.4229,0,-4.4196,-4.4229,-4.4272,-4.4279,-4.4293,-4.434,-4.4307,-4.4327,-4.4298,-4.4281,-4.4334,-4.4327,-4.4346,-4.4359,-4.4331,-4.4424,-4.4404,-4.4361,-4.4297,-4.4406,-4.4447,-4.4463,-4.4239,-4.4237,-4.4235,-4.4234,0,0,-4.438,-4.4364,-4.4381,-4.4384,-4.4378,-4.4403,-4.4447,-4.4465,-4.4484,-4.449,-4.4527,-4.4564,-4.4525,-4.4533,-4.4505,-4.4542,-4.4645,-4.4494,-4.4494,-4.4524,-4.4748,-4.4782,-4.4802,-4.4618,-4.4621,-4.4623,-4.4749,0,-4.4502,-4.4577,-4.4542,-4.4621,-4.4652,-4.4594,-4.4633,-4.4634,-4.462,-4.4644,-4.4628,-4.4656,-4.4601,-4.4606,-4.464,-4.4625,-4.4689,-4.4615,-4.4653,-4.4655,-4.4657,-4.4823,-4.4858,-4.4977,-4.4764,-4.4767,-4.4769,0,-4.4654,-4.4667,-4.475,-4.4739,-4.4751,-4.4786,-4.4801,-4.4824,-4.4825,-4.4812,-4.4822,-4.4785,-4.4829,-4.4764,-4.4825,-4.4775,-4.4789,-4.4784,-4.4788,-4.4791,-4.472,-4.4833,-4.5014,-4.5033,-4.4793,-4.4791,-4.479,0,-4.4782,-4.482,-4.4874,-4.4879,-4.4867,-4.4894,-4.4891,-4.4888,-4.4901,-4.4914,-4.4923,-4.494,-4.4951,-4.4966,-4.4936,-4.4891,-4.5001,-4.4933,-4.4993,-4.4994,-4.502,-4.5019,-4.5208,-4.5026,-4.5026,-4.5026,-4.5025,0,-4.4923,-4.4976,-4.4932,-4.4966,-4.5024,-4.4984,-4.5043,-4.5033,-4.5031,-4.5063,-4.5013,-4.5044,-4.5001,-4.5028,-4.5005,-4.506,-4.5064,-4.5056,-4.505,-4.5062,-4.5063,-4.5071,-4.5062,-4.503,-4.5029,-4.5028,-4.5028,0,-4.5077,-4.5049,-4.5105,-4.509,-4.5087,-4.5131,-4.5118,-4.515,-4.5132,-4.5172,-4.518,-4.5152,-4.5182,-4.5152,-4.518,-4.5164,-4.5238,-4.5219,-4.5239,-4.5234,-4.5296,-4.5291,-4.5498,-4.5523,-4.5324,-4.5326,-4.5327,0,-4.5169,-4.5209,-4.5198,-4.5216,-4.5215,-4.5244,-4.5258,-4.5219,-4.5236,-4.524,-4.5271,-4.5296,-4.5314,-4.5364,-4.5347,-4.5368,-4.535,-4.5421,-4.5353,-4.5364,-4.5353,-4.5352,-4.5356,-4.5435,-4.5438,-4.5439,-4.5441,0,-4.5337,-4.5321,-4.5343,-4.536,-4.5378,-4.539,-4.5398,-4.5415,-4.5375,-4.5396,-4.5426,-4.544,-4.5468,-4.5494,-4.551,-4.5507,-4.5469,-4.5462,-4.5478,-4.5491,-4.5502,-4.5499,-4.5278,-4.5458,-4.5456,-4.5455,-4.5454,-4.5454,-4.5464,-4.5497,-4.5495,-4.5521,-4.5523,-4.5532,-4.5561,-4.5547,-4.557,-4.559,-4.5566,-4.5603,-4.5603,-4.562,-4.5622,-4.5651,-4.5621,-4.5643,-4.5648,-4.5655,-4.5665,-4.5496,-4.5653,-4.5653,-4.5652,-4.5652,-4.5651,0,-4.5631,-4.5627,-4.5651,-4.5664,-4.5685,-4.5645,-4.5652,-4.5672,-4.5705,-4.5708,-4.5727,-4.5762,-4.5787,-4.5772,-4.5794,-4.582,-4.5803,-4.5827,-4.5826,-4.5826,-4.5689,-4.5675,-4.5841,-4.5841,-4.5841,-4.5841,-4.5841,-4.5841,-4.572,-4.5775,-4.5759,-4.5815,-4.581,-4.5845,-4.5853,-4.5861,-4.5864,-4.5904,-4.5925,-4.5915,-4.5911,-4.5933,-4.5955,-4.5949,-4.5961,-4.5992,-4.5981,-4.5854,-4.5835,-4.5818,-4.5804,-4.5994,-4.5994,-4.6115,-4.6117,-4.6117]},{"header":{"parameterUnit":"m.s-1","parameterCategory":1,"la1":30.2991,"la2":30.254,"lo1":-89.0895,"lo2":-89.0444,"dy":0.0017,"dx":0.0017,"nx":28,"ny":28,"refTime":"2025-04-15T21:00:00:Z","depth":0,"parameterNumber":3,"parameterNumberName":"V-component_of_WINDS"},"data":[0,0,0,0,0,0,0,0,0,0,0,0,0,0,0,0,0,0,0,0,0,0,0,0,0,0,0,0,0,0,0,0,0,0,0,0,0,0,0,0,0,0,0,0,0,0,0,0,0,0,0,0,0,0,0,0,0,0,-2.359,-2.359,0,-2.3582,-2.3582,-2.3582,-2.3534,-2.3533,-2.3532,-2.353,-2.3523,-2.3524,-2.3525,0,0,0,0,0,0,0,0,0,0,0,0,0,-2.3562,-2.3562,-2.359,-2.359,-2.3589,-2.3582,-2.3582,-2.3582,-2.3534,-2.3533,-2.3531,-2.353,-2.3523,-2.3524,-2.3525,0,0,0,0,0,0,0,0,0,0,0,0,0,-2.3566,-2.3563,-2.359,-2.3565,-2.3562,-2.3582,-2.3582,-2.3582,-2.3534,-2.3533,-2.3531,-2.3529,-2.3523,-2.3524,-2.3525,-2.3569,0,0,-2.353,-2.353,0,0,0,0,0,0,0,0,-2.3566,-2.3567,-2.3568,-2.3566,-2.3564,-2.3557,-2.357,-2.3578,-2.3535,-2.3545,-2.353,-2.3528,-2.3536,-2.3536,-2.3539,-2.3569,-2.3569,-2.353,-2.3531,-2.3531,-2.3532,0,0,0,0,0,0,0,-2.3566,-2.3567,-2.3587,-2.3568,-2.3566,-2.3554,-2.3552,-2.3571,-2.3551,-2.3544,-2.354,-2.354,-2.3535,-2.3538,-2.3538,-2.3568,-2.353,-2.3531,-2.3532,-2.3532,-2.3634,-2.3635,0,0,0,0,0,0,-2.3569,-2.3567,-2.3587,-2.3586,-2.3561,-2.3556,-2.3554,-2.3561,-2.355,-2.3547,-2.3542,-2.3538,-2.3536,-2.3537,-2.3538,-2.3588,-2.3531,-2.3532,-2.3533,-2.3632,-2.3634,-2.3636,0,0,0,0,0,0,-2.3568,-2.3571,-2.3587,-2.3576,-2.3577,-2.3558,-2.3566,-2.3562,-2.3565,-2.3549,-2.3545,-2.3549,-2.3535,-2.3536,-2.3562,-2.3587,-2.3533,-2.3534,-2.3629,-2.3632,-2.3635,-2.369,0,0,0,0,0,0,-2.3568,-2.3571,-2.3588,-2.3577,-2.3578,-2.3611,-2.3568,-2.3563,-2.3567,-2.3562,-2.3554,-2.3551,-2.3534,-2.356,-2.3563,-2.3588,-2.3535,-2.3627,-2.3631,-2.3634,-2.3685,-2.3694,-2.3701,0,0,0,0,0,-2.3567,-2.3604,-2.3589,-2.3592,-2.3598,-2.3613,-2.3614,-2.3593,-2.357,-2.3586,-2.3575,-2.3551,-2.3584,-2.3563,-2.3566,-2.3592,-2.3625,-2.363,-2.3634,-2.3682,-2.3692,-2.3701,0,0,0,0,0,0,-2.3619,-2.3602,-2.3585,-2.3619,-2.3618,-2.3605,-2.3625,-2.3604,-2.361,-2.3605,-2.3579,-2.3577,-2.3607,-2.3602,-2.3579,-2.3634,-2.36,-2.3606,-2.3636,-2.3646,-2.3653,-2.3654,-2.3536,0,0,0,0,0,-2.3634,-2.3647,-2.3632,-2.3663,-2.3663,-2.3644,-2.365,-2.3634,-2.3632,-2.3631,-2.3622,-2.3621,-2.363,-2.3638,-2.3646,-2.3684,-2.3682,-2.3704,-2.3711,-2.3718,-2.3723,-2.3743,-2.3752,-2.365,-2.365,-2.365,0,0,-2.3666,-2.3658,-2.3668,-2.3673,-2.367,-2.3685,-2.3644,-2.3661,-2.3672,-2.3633,-2.3657,-2.3651,-2.3647,-2.368,-2.3693,-2.3676,-2.375,-2.3723,-2.3729,-2.373,-2.3748,-2.3758,-2.3766,-2.3653,-2.3652,-2.3652,0,0,-2.3731,-2.3727,-2.3752,-2.375,-2.3746,-2.3733,-2.3739,-2.3729,-2.3723,-2.3746,-2.3718,-2.373,-2.3747,-2.3746,-2.3748,-2.3812,-2.379,-2.3816,-2.3857,-2.3877,-2.3885,-2.3892,-2.3915,-2.3924,-2.382,-2.382,-2.3821,0,-2.3771,-2.3792,-2.3768,-2.3787,-2.379,-2.3755,-2.3781,-2.378,-2.3779,-2.3782,-2.3763,-2.3784,-2.3779,-2.3811,-2.3827,-2.3829,-2.3835,-2.3817,-2.3885,-2.3892,-2.3899,-2.392,-2.3929,-2.3824,-2.3823,-2.3823,-2.3823,0,-2.3841,-2.3856,-2.3877,-2.3877,-2.3882,-2.3905,-2.3884,-2.3892,-2.3876,-2.3865,-2.3889,-2.3882,-2.3888,-2.3894,-2.3878,-2.3923,-2.3913,-2.389,-2.3856,-2.3912,-2.3932,-2.394,-2.3828,-2.3827,-2.3826,-2.3825,0,0,-2.394,-2.3925,-2.3934,-2.3933,-2.3925,-2.3936,-2.3957,-2.3963,-2.397,-2.397,-2.3987,-2.4003,-2.3981,-2.3983,-2.3967,-2.3984,-2.4035,-2.3959,-2.3958,-2.3974,-2.4085,-2.4103,-2.4113,-2.402,-2.4022,-2.4023,-2.4085,0,-2.4003,-2.4037,-2.4016,-2.4054,-2.4067,-2.4034,-2.4052,-2.4049,-2.4039,-2.4049,-2.4038,-2.4049,-2.402,-2.4021,-2.4037,-2.4026,-2.4058,-2.4021,-2.4036,-2.4037,-2.4039,-2.4123,-2.4142,-2.4201,-2.4093,-2.4094,-2.4095,0,-2.4081,-2.4084,-2.4123,-2.4113,-2.4118,-2.4134,-2.4137,-2.4147,-2.4143,-2.4135,-2.4137,-2.4116,-2.4135,-2.4102,-2.4128,-2.4104,-2.4108,-2.4104,-2.4106,-2.4107,-2.407,-2.4127,-2.4219,-2.4228,-2.4107,-2.4106,-2.4106,0,-2.4149,-2.4163,-2.4188,-2.4189,-2.4177,-2.4189,-2.4185,-2.418,-2.4184,-2.4187,-2.419,-2.4195,-2.4198,-2.4203,-2.4184,-2.4161,-2.4213,-2.4178,-2.4207,-2.4208,-2.422,-2.4219,-2.4315,-2.4222,-2.4222,-2.4222,-2.4222,0,-2.4222,-2.4247,-2.4219,-2.4234,-2.4261,-2.4237,-2.4264,-2.4256,-2.4252,-2.4265,-2.4237,-2.425,-2.4224,-2.4234,-2.4219,-2.4244,-2.4245,-2.4239,-2.4235,-2.4242,-2.4243,-2.4245,-2.4241,-2.4224,-2.4224,-2.4223,-2.4223,0,-2.4303,-2.4285,-2.431,-2.4297,-2.4294,-2.4315,-2.4303,-2.4317,-2.4305,-2.4322,-2.4325,-2.4306,-2.4317,-2.4298,-2.4307,-2.4297,-2.4331,-2.432,-2.4332,-2.4329,-2.436,-2.4357,-2.446,-2.4473,-2.4372,-2.4373,-2.4374,0,-2.4351,-2.437,-2.4358,-2.4365,-2.4362,-2.4374,-2.4378,-2.4354,-2.436,-2.4357,-2.4371,-2.438,-2.4385,-2.4404,-2.4391,-2.4398,-2.4387,-2.4423,-2.4388,-2.4395,-2.4388,-2.4388,-2.439,-2.443,-2.4432,-2.4433,-2.4433,0,-2.4438,-2.4428,-2.4436,-2.444,-2.4446,-2.4448,-2.4449,-2.4456,-2.4431,-2.4439,-2.4449,-2.4454,-2.4462,-2.4471,-2.4474,-2.447,-2.4448,-2.4444,-2.4451,-2.4459,-2.4465,-2.4463,-2.4352,-2.4442,-2.4441,-2.4441,-2.444,-2.444,-2.4505,-2.4519,-2.4513,-2.4523,-2.452,-2.4521,-2.4533,-2.4522,-2.4531,-2.4536,-2.4521,-2.4535,-2.453,-2.4532,-2.4531,-2.4541,-2.4526,-2.4536,-2.4539,-2.4542,-2.4547,-2.4463,-2.4542,-2.4541,-2.4541,-2.4541,-2.4541,0,-2.459,-2.4585,-2.4593,-2.4594,-2.4602,-2.4579,-2.4578,-2.4586,-2.4599,-2.4596,-2.4602,-2.4614,-2.4622,-2.461,-2.4616,-2.4627,-2.4617,-2.463,-2.4629,-2.4628,-2.456,-2.4553,-2.4638,-2.4638,-2.4638,-2.4638,-2.4638,-2.4638,-2.4636,-2.466,-2.4649,-2.4671,-2.4665,-2.4679,-2.468,-2.468,-2.4678,-2.4693,-2.47,-2.4691,-2.4685,-2.469,-2.4697,-2.4693,-2.4697,-2.4713,-2.4706,-2.4643,-2.4633,-2.4624,-2.4618,-2.4714,-2.4714,-2.4773,-2.4774,-2.4774]}]]